Powrót do katalogu

DELTA 1 DEB

AktywnySSO
NORAD 10755·DEBRIS·🇺🇸 United States

Wystrzelony Jul 29, 1976 z Vandenberg Space Force Base

Loading…

Następne Przeloty (najbliższe 24 godziny)

TLE

ŚwieżeSource: Space-Track

Epoka: Sep 14, 2026, 10:28 UTC

1 10755U 76077BC  26257.43678214 -.00000043  00000-0  31952-4 0  9994
2 10755 102.5914 235.9923 0080671 223.1805 291.7226 12.26086019244057

Śledź DELTA 1 DEB w czasie rzeczywistym z AllMySat

Download on the App Store